KT2UU-13 Weather Reports


time (UTC)temp
C
wind
direction
speed
KPH
gust
KPH
rain 1hr
cm
rain 24hr
cm
rain mn
cm
humidity
%
barometer
mb
20260504201845 25 194 4.8 12.9 0.00 0.00 0.00 44 1015.3
20260504201343 26 97 1.6 3.2 0.00 0.00 0.00 43 1015.3
20260504200840 25 129 1.6 3.2 0.00 0.00 0.00 41 1015.4
20260504200337 25 124 0.0 1.6 0.00 0.00 0.00 45 1015.4
20260504195833 25 98 0.0 0.0 0.00 0.00 0.00 45 1015.4
20260504195329 25 156 3.2 3.2 0.00 0.00 0.00 42 1015.6
20260504194826 25 180 6.4 6.4 0.00 0.00 0.00 40 1015.9
20260504194322 25 217 0.0 3.2 0.00 0.00 0.00 41 1015.7
20260504193818 25 52 1.6 3.2 0.00 0.00 0.00 43 1015.9
20260504193316 25 124 4.8 6.4 0.00 0.00 0.00 43 1015.8
20260504192814 25 102 0.0 4.8 0.00 0.00 0.00 46 1015.8
20260504192312 25 18 0.0 0.0 0.00 0.00 0.00 48 1016.0
20260504191810 24 18 0.0 0.0 0.00 0.00 0.00 49 1016.1
20260504191307 24 131 0.0 0.0 0.00 0.00 0.00 46 1016.3
20260504190803 24 131 0.0 3.2 0.00 0.00 0.00 46 1016.3
20260504190259 23 145 0.0 0.0 0.00 0.00 0.00 49 1016.3
20260504185755 24 145 0.0 4.8 0.00 0.00 0.00 46 1016.5
20260504185253 23 149 0.0 3.2 0.00 0.00 0.00 46 1016.4
20260504184749 24 200 1.6 4.8 0.00 0.00 0.00 48 1016.4
20260504184244 23 169 6.4 9.7 0.00 0.00 0.00 46 1016.6
20260504183740 23 203 3.2 4.8 0.00 0.00 0.00 49 1016.6
20260504183237 23 221 3.2 9.7 0.00 0.00 0.00 47 1016.4
20260504182736 23 164 0.0 3.2 0.00 0.00 0.00 45 1016.8
20260504182232 23 142 3.2 4.8 0.00 0.00 0.00 51 1016.6
20260504181730 23 9 8.0 11.3 0.00 0.00 0.00 48 1016.8
20260504181227 23 4 0.0 0.0 0.00 0.00 0.00 49 1016.9
20260504180726 23 110 0.0 3.2 0.00 0.00 0.00 50 1016.8
20260504180225 22 219 0.0 3.2 0.00 0.00 0.00 47 1017.0
20260504175722 22 192 6.4 9.7 0.00 0.00 0.00 48 1017.0
20260504175218 22 186 3.2 3.2 0.00 0.00 0.00 49 1017.1
20260504174716 22 120 3.2 3.2 0.00 0.00 0.00 51 1017.2
20260504174214 22 119 3.2 4.8 0.00 0.00 0.00 48 1017.3
20260504173710 22 142 0.0 1.6 0.00 0.00 0.00 51 1017.2
20260504173208 22 110 0.0 1.6 0.00 0.00 0.00 50 1017.4
20260504172704 22 98 4.8 6.4 0.00 0.00 0.00 50 1017.6
20260504172200 22 250 3.2 3.2 0.00 0.00 0.00 50 1017.4
20260504171657 21 124 1.6 3.2 0.00 0.00 0.00 50 1017.5
20260504171154 21 195 6.4 11.3 0.00 0.00 0.00 49 1017.8
20260504170650 22 206 3.2 4.8 0.00 0.00 0.00 49 1017.7
20260504170148 21 6 0.0 4.8 0.00 0.00 0.00 52 1017.7
20260504151033 18 133 0.0 1.6 0.00 0.00 0.00 59 1018.7
20260504150531 17 16 1.6 3.2 0.00 0.00 0.00 61 1018.6
20260504140957 17 211 0.0 1.6 0.00 0.00 0.00 68 1019.2
20260504140454 16 348 0.0 1.6 0.00 0.00 0.00 69 1019.0
20260504130418 14 213 0.0 1.6 0.00 0.00 0.00 74 1018.9
20260504110305 5 181 0.0 0.0 0.00 0.00 0.00 98 1018.7
20260504100223 5 181 0.0 0.0 0.00 0.00 0.00 97 1018.3
20260504081616 6 181 0.0 0.0 0.00 0.00 0.00 95 1018.2
20260504081112 6 181 0.0 0.0 0.00 0.00 0.00 95 1017.9
20260504080609 6 181 0.0 0.0 0.00 0.00 0.00 95 1018.2
20260504080105 6 181 0.0 0.0 0.00 0.00 0.00 94 1018.1
20260504050421 8 181 0.0 0.0 0.00 0.00 0.00 85 1019.2
20260504045918 8 181 0.0 0.0 0.00 0.00 0.00 85 1019.2
20260504045414 8 181 0.0 0.0 0.00 0.00 0.00 86 1019.2
20260504044910 8 180 0.0 0.0 0.00 0.00 0.00 86 1019.2
20260504044408 8 181 0.0 0.0 0.00 0.00 0.00 85 1019.1
20260504043905 8 181 0.0 0.0 0.00 0.00 0.00 84 1019.3
20260504043402 8 180 0.0 0.0 0.00 0.00 0.00 84 1019.1
20260504042900 8 180 0.0 0.0 0.00 0.00 0.00 84 1019.1
20260504042355 9 175 0.0 0.0 0.00 0.00 0.00 84 1019.1
20260504041852 9 181 0.0 0.0 0.00 0.00 0.00 84 1019.2
20260504041348 9 181 0.0 0.0 0.00 0.00 0.00 84 1019.1
20260504040845 10 181 0.0 0.0 0.00 0.00 0.00 83 1018.9
20260504040343 10 181 0.0 0.0 0.00 0.00 0.00 82 1019.0
20260504035838 9 181 0.0 0.0 0.00 0.00 0.00 83 1019.0
20260504035337 9 181 0.0 0.0 0.00 0.00 0.00 85 1019.1
20260504034832 9 181 0.0 0.0 0.00 0.00 0.00 84 1019.3
20260504034330 10 181 0.0 0.0 0.00 0.00 0.00 83 1019.0
20260504033827 10 181 0.0 0.0 0.00 0.00 0.00 83 1019.3
20260504033326 10 181 0.0 0.0 0.00 0.00 0.00 83 1019.3
20260504032821 10 181 0.0 0.0 0.00 0.00 0.00 82 1019.1
20260504032319 10 181 0.0 0.0 0.00 0.00 0.00 81 1018.9
20260504031815 10 181 0.0 0.0 0.00 0.00 0.00 82 1019.0
20260504031313 10 181 0.0 0.0 0.00 0.00 0.00 82 1019.0
20260504030809 10 176 0.0 0.0 0.00 0.00 0.00 81 1019.1
20260504030306 10 181 0.0 1.6 0.00 0.00 0.00 79 1018.7
20260504025802 10 181 0.0 0.0 0.00 0.00 0.00 82 1018.9
20260504025259 10 181 0.0 0.0 0.00 0.00 0.00 82 1019.2
20260504024756 10 181 0.0 0.0 0.00 0.00 0.00 81 1019.2
20260504024253 10 181 0.0 0.0 0.00 0.00 0.00 81 1019.1
20260504023750 11 181 0.0 0.0 0.00 0.00 0.00 81 1019.3
20260504023246 11 175 0.0 0.0 0.00 0.00 0.00 79 1019.1
20260504022742 11 181 0.0 0.0 0.00 0.00 0.00 78 1018.9
20260504022238 11 181 0.0 0.0 0.00 0.00 0.00 78 1019.0
20260504021735 11 181 0.0 1.6 0.00 0.00 0.00 77 1018.8
20260504021232 11 181 0.0 0.0 0.00 0.00 0.00 76 1018.9
20260504020724 11 181 0.0 0.0 0.00 0.00 0.00 75 1018.9
20260504020220 12 181 0.0 0.0 0.00 0.00 0.00 74 1018.9
20260504015716 12 181 0.0 0.0 0.00 0.00 0.00 74 1018.7
20260504015212 12 181 0.0 0.0 0.00 0.00 0.00 73 1018.6
20260504014708 12 176 0.0 0.0 0.00 0.00 0.00 73 1018.6
20260504014206 12 181 0.0 0.0 0.00 0.00 0.00 71 1018.7
20260504013703 12 181 0.0 0.0 0.00 0.00 0.00 69 1018.5
20260504013200 13 181 0.0 0.0 0.00 0.00 0.00 68 1018.7
20260504012657 13 181 0.0 0.0 0.00 0.00 0.00 68 1018.5
20260504012155 13 181 0.0 0.0 0.00 0.00 0.00 64 1018.4
20260504011651 14 181 0.0 0.0 0.00 0.00 0.00 63 1018.3
20260504011148 14 181 0.0 0.0 0.00 0.00 0.00 61 1018.3
20260504010644 15 181 0.0 0.0 0.00 0.00 0.00 58 1018.2
20260504010140 15 176 0.0 0.0 0.00 0.00 0.00 57 1018.1
20260504005637 16 181 0.0 1.6 0.00 0.00 0.00 53 1018.3
20260504005133 16 181 3.2 3.2 0.00 0.00 0.00 51 1018.0
20260504004632 16 197 1.6 3.2 0.00 0.00 0.00 52 1018.1
20260504004128 16 183 0.0 1.6 0.00 0.00 0.00 52 1018.0
20260504003625 16 183 0.0 3.2 0.00 0.00 0.00 52 1018.0
20260504003121 16 194 0.0 0.0 0.00 0.00 0.00 54 1017.9
20260504002618 16 195 0.0 0.0 0.00 0.00 0.00 56 1017.8
20260504002116 17 195 0.0 0.0 0.00 0.00 0.00 52 1018.0
20260504001614 17 195 0.0 1.6 0.00 0.00 0.00 48 1018.3
20260504001109 17 185 0.0 1.6 0.00 0.00 0.00 47 1018.2
20260504000607 17 193 0.0 0.0 0.00 0.00 0.00 47 1018.0
20260504000104 18 193 0.0 0.0 0.00 0.00 0.00 47 1018.2
20260503235603 18 193 0.0 1.6 0.00 0.00 0.00 47 1018.2
20260503235059 18 203 1.6 3.2 0.00 0.00 0.00 44 1018.2
20260503234557 19 189 0.0 0.0 0.00 0.00 0.00 43 1018.0
20260503234055 19 200 0.0 0.0 0.00 0.00 0.00 42 1018.1
20260503233551 20 200 0.0 3.2 0.00 0.00 0.00 42 1018.0
20260503233047 20 189 1.6 1.6 0.00 0.00 0.00 40 1018.1
20260503232544 20 218 1.6 6.4 0.00 0.00 0.00 39 1018.1
20260503232042 20 191 1.6 1.6 0.00 0.00 0.00 41 1018.1
20260503231540 21 176 1.6 4.8 0.00 0.00 0.00 40 1018.0
20260503231036 21 202 1.6 4.8 0.00 0.00 0.00 42 1018.0
20260503230532 20 227 0.0 0.0 0.00 0.00 0.00 42 1018.0
20260503230030 20 227 0.0 1.6 0.00 0.00 0.00 42 1018.1
20260503225527 20 226 3.2 6.4 0.00 0.00 0.00 40 1018.0
20260503225021 21 201 0.0 3.2 0.00 0.00 0.00 40 1018.1
20260503224520 21 249 1.6 3.2 0.00 0.00 0.00 40 1018.3
20260503224017 21 278 3.2 4.8 0.00 0.00 0.00 39 1018.3
20260503223515 21 240 6.4 9.7 0.00 0.00 0.00 39 1018.4
20260503223010 21 188 4.8 9.7 0.00 0.00 0.00 39 1018.1
20260503222509 21 239 0.0 3.2 0.00 0.00 0.00 40 1018.3
20260503222006 21 285 0.0 3.2 0.00 0.00 0.00 39 1018.5
20260503221504 21 190 6.4 9.7 0.00 0.00 0.00 40 1018.4
20260503221001 21 228 3.2 4.8 0.00 0.00 0.00 41 1018.4
20260503220457 21 278 6.4 9.7 0.00 0.00 0.00 40 1018.3
20260503215954 21 187 0.0 3.2 0.00 0.00 0.00 41 1018.5
20260503215451 21 239 0.0 4.8 0.00 0.00 0.00 40 1018.6
20260503214949 21 187 4.8 6.4 0.00 0.00 0.00 40 1018.3
20260503214447 21 176 4.8 6.4 0.00 0.00 0.00 42 1018.4
20260503213943 21 224 1.6 4.8 0.00 0.00 0.00 40 1018.5
20260503213442 20 255 3.2 11.3 0.00 0.00 0.00 40 1018.5
20260503212938 20 145 3.2 14.5 0.00 0.00 0.00 41 1018.4
20260503212435 21 242 0.0 0.0 0.00 0.00 0.00 38 1018.7
20260503211933 20 188 4.8 4.8 0.00 0.00 0.00 41 1018.8
20260503211430 20 202 1.6 3.2 0.00 0.00 0.00 40 1018.7
20260503210925 20 158 3.2 6.4 0.00 0.00 0.00 42 1018.7
20260503210422 20 81 0.0 4.8 0.00 0.00 0.00 40 1018.7
20260503205917 20 149 0.0 4.8 0.00 0.00 0.00 42 1018.8
20260503205414 20 185 3.2 4.8 0.00 0.00 0.00 41 1018.9
20260503204910 20 170 3.2 4.8 0.00 0.00 0.00 38 1018.9
20260503204408 20 133 4.8 4.8 0.00 0.00 0.00 41 1019.0
20260503203905 20 182 0.0 4.8 0.00 0.00 0.00 42 1019.1
20260503203402 21 184 6.4 6.4 0.00 0.00 0.00 40 1019.0
20260503202859 21 195 3.2 9.7 0.00 0.00 0.00 39 1019.1
20260503202357 20 193 0.0 1.6 0.00 0.00 0.00 38 1019.1